Weather History for Ardmore, OK

Change the Weather History Date:

Tuesday, July 2, 2013

  Actual Average Record
Temperature  
Mean Temperature 73 °F -  
Max Temperature 90 °F 89 °F 104 °F (2011)
Min Temperature 57 °F 71 °F 57 °F (2013)
Cooling Degree Days 8    
Growing Degree Days 23 (Base 50)    
Moisture  
Dew Point 50 °F    
Average Humidity 60    
Maximum Humidity 80    
Minimum Humidity 20    
Precipitation  
Precipitation 0.00 in - - ()
Sea Level Pressure  
Sea Level Pressure 30.08 in    
Wind  
Wind Speed 2 mph (NNW)    
Max Wind Speed 10 mph    
Max Gust Speed 16 mph    
Visibility 10 miles    
Events      
Averages and records for this station are not official NWS values.
T = Trace of Precipitation, MM = Missing Value Source: NWS Daily Summary

Daily Weather History Graph

Daily Weather History Graph

Search for Another Location

Airport:

Trip Planner

Search our weather history database for the weather conditions in past years. The results will help you decide how hot, cold, wet, or windy it might be!

Date:

Astronomy

Jul. 02, 2013 Rise Set
Actual Time 6:20 AM CDT 8:43 PM CDT
Civil Twilight 5:50 AM CDT 9:13 PM CDT
Nautical Twilight 5:15 AM CDT 9:49 PM CDT
Astronomical Twilight 4:35 AM CDT 10:28 PM CDT
Moon 2:16 AM CDT (7/2) 4:05 PM CDT (7/2)
Length of Visible Light 15h 22m
Length of Day
14h 23m
Waning Crescent, 26% of the Moon is Illuminated
Jul 2
Waning Crescent
Jul 8
New
Jul 15
First Quarter
Jul 22
Full
Jul 29
Last Quarter

Hourly Weather History & Observations

Time (CDT) Temp. Dew Point Humidity Pressure Visibility Wind Dir Wind Speed Gust Speed Precip Events Conditions
12:15 AM 62.8 °F 47.5 °F 57% 30.06 in 10.0 mi Calm Calm - N/A   Clear
12:35 AM 62.4 °F 48.9 °F 61% 30.07 in 10.0 mi Calm Calm - N/A   Clear
12:55 AM 61.9 °F 50.2 °F 65% 30.07 in 10.0 mi NNW 3.5 mph - N/A   Clear
1:15 AM 61.9 °F 50.7 °F 67% 30.07 in 10.0 mi North 4.6 mph - N/A   Clear
1:35 AM 61.7 °F 51.1 °F 68% 30.06 in 10.0 mi North 3.5 mph - N/A   Clear
1:55 AM 61.7 °F 50.9 °F 68% 30.06 in 10.0 mi NNW 3.5 mph - N/A   Clear
2:15 AM 62.6 °F 50.9 °F 66% 30.06 in 10.0 mi Calm Calm - N/A   Clear
2:35 AM 61.9 °F 50.9 °F 67% 30.06 in 10.0 mi WNW 3.5 mph - N/A   Clear
2:55 AM 60.6 °F 50.7 °F 70% 30.06 in 10.0 mi Calm Calm - N/A   Clear
3:15 AM 59.5 °F 48.7 °F 67% 30.06 in 10.0 mi Calm Calm - N/A   Clear
3:35 AM 58.3 °F 48.4 °F 70% 30.06 in 10.0 mi North 4.6 mph - N/A   Clear
3:55 AM 58.1 °F 47.1 °F 67% 30.06 in 10.0 mi Calm Calm - N/A   Clear
4:15 AM 58.5 °F 49.6 °F 72% 30.06 in 10.0 mi Calm Calm - N/A   Clear
4:35 AM 59.0 °F 50.4 °F 73% 30.07 in 10.0 mi Calm Calm - N/A   Clear
4:55 AM 59.2 °F 50.2 °F 72% 30.07 in 10.0 mi Calm Calm - N/A   Clear
5:15 AM 57.7 °F 48.4 °F 71% 30.07 in 10.0 mi Calm Calm - N/A   Clear
5:35 AM 57.6 °F 51.1 °F 79% 30.08 in 10.0 mi Calm Calm - N/A   Clear
5:55 AM 57.6 °F 51.3 °F 79% 30.08 in 10.0 mi Calm Calm - N/A   Clear
6:15 AM 57.0 °F 50.0 °F 77% 30.09 in 10.0 mi Calm Calm - N/A   Clear
6:35 AM 57.0 °F 50.9 °F 80% 30.09 in 10.0 mi Calm Calm - N/A   Clear
7:55 AM 66.2 °F 53.6 °F 64% 30.12 in 10.0 mi North 3.5 mph - N/A   Clear
8:55 AM 73.4 °F 51.8 °F 47% 30.12 in 10.0 mi NNW 5.8 mph - N/A   Clear
9:55 AM 77.0 °F 51.8 °F 41% 30.12 in 10.0 mi NNW 4.6 mph - N/A   Clear
10:55 AM 82.4 °F 50.0 °F 32% 30.12 in 10.0 mi North 6.9 mph - N/A   Clear
11:55 AM 84.2 °F 46.4 °F 27% 30.12 in 10.0 mi North 10.4 mph - N/A   Clear
12:55 PM 86.0 °F 41.0 °F 20% 30.10 in 10.0 mi NNW 4.6 mph 16.1 mph N/A   Clear
2:55 PM 86.0 °F 42.8 °F 22% 30.06 in 10.0 mi NNE 5.8 mph - N/A   Clear
3:55 PM 89.6 °F 42.8 °F 20% 30.05 in 10.0 mi North 9.2 mph - N/A   Clear
11:35 PM 62.8 °F 54.7 °F 75% 30.06 in 10.0 mi Calm Calm - N/A   Clear
11:55 PM 62.6 °F 53.1 °F 71% 30.06 in 10.0 mi Calm Calm - N/A   Clear